NOZ2KU EPWA-ENGM

Flight info

Callsign NOZ2KU
Flight time 1h 30m
Altitude 38000
Route OLILA L621 SOMOR DCT LARMA DCT SABAK L997 LUNIP
Aircraft B38M/M-SDE1FGHILORVWXY/HB1

Departure

Time 2026-05-07 20:54
Airport Warsaw Chopin Airport (EPWA)

Arrival

Time 2026-05-07 22:24
Airport Oslo-Gardermoen International Airport (ENGM)
Time Latitude Longitude Altitude Speed Heading
2026-05-07 20:17 52.17289 20.96600 352 ft 0 kts 201°
2026-05-07 20:48 52.17288 20.96599 352 ft 1 kts 201°
2026-05-07 20:48 52.17270 20.96587 352 ft 6 kts 201°
2026-05-07 20:48 52.17199 20.96568 352 ft 13 kts 166°
2026-05-07 20:48 52.17106 20.96640 352 ft 16 kts 152°
2026-05-07 20:49 52.17003 20.96732 352 ft 18 kts 152°
2026-05-07 20:49 52.16885 20.96835 352 ft 20 kts 152°
2026-05-07 20:49 52.16756 20.96948 352 ft 22 kts 151°
2026-05-07 20:49 52.16673 20.97032 351 ft 9 kts 157°
2026-05-07 20:50 52.16645 20.97103 351 ft 9 kts 112°
2026-05-07 20:50 52.16605 20.97246 352 ft 18 kts 115°
2026-05-07 20:50 52.16547 20.97452 352 ft 21 kts 114°
2026-05-07 20:50 52.16486 20.97682 352 ft 23 kts 114°
2026-05-07 20:51 52.16421 20.97921 352 ft 21 kts 116°
2026-05-07 20:51 52.16360 20.98144 352 ft 23 kts 114°
2026-05-07 20:51 52.16307 20.98320 352 ft 11 kts 134°
2026-05-07 20:51 52.16263 20.98330 353 ft 5 kts 201°
2026-05-07 20:52 52.16225 20.98302 353 ft 7 kts 205°
2026-05-07 20:52 52.16167 20.98259 354 ft 9 kts 206°
2026-05-07 20:52 52.16153 20.98216 354 ft 4 kts 273°
2026-05-07 20:52 52.16161 20.98179 354 ft 0 kts 297°
2026-05-07 20:53 52.16164 20.98170 354 ft 6 kts 297°
2026-05-07 20:53 52.16231 20.97939 353 ft 54 kts 294°
2026-05-07 20:53 52.16485 20.97028 346 ft 121 kts 295°
2026-05-07 20:54 52.16909 20.95512 404 ft 165 kts 293°
2026-05-07 20:54 52.17398 20.93775 912 ft 178 kts 294°
2026-05-07 20:54 52.17912 20.91935 1687 ft 176 kts 294°
2026-05-07 20:54 52.18546 20.90177 2343 ft 189 kts 307°
2026-05-07 20:55 52.19585 20.88683 2838 ft 212 kts 330°
2026-05-07 20:55 52.21057 20.87933 3332 ft 235 kts 349°
2026-05-07 20:55 52.22619 20.86908 3836 ft 254 kts 318°
2026-05-07 20:55 52.23826 20.84702 4471 ft 268 kts 311°
2026-05-07 20:56 52.25102 20.82435 5329 ft 273 kts 312°
2026-05-07 20:56 52.26533 20.80370 6186 ft 278 kts 324°
2026-05-07 20:56 52.28073 20.78431 7013 ft 282 kts 320°
2026-05-07 20:56 52.29605 20.76389 7830 ft 286 kts 320°
2026-05-07 20:57 52.31165 20.74332 8614 ft 290 kts 320°
2026-05-07 20:57 52.32752 20.72250 9373 ft 294 kts 321°
2026-05-07 20:57 52.34361 20.70144 10107 ft 298 kts 321°
2026-05-07 20:57 52.36016 20.67980 10604 ft 312 kts 321°
2026-05-07 20:58 52.37740 20.65727 11112 ft 322 kts 321°
2026-05-07 20:58 52.39502 20.63422 11771 ft 326 kts 321°
2026-05-07 20:58 52.41284 20.61088 12483 ft 330 kts 321°
2026-05-07 20:58 52.43082 20.58732 13203 ft 333 kts 321°
2026-05-07 20:59 52.44898 20.56350 13923 ft 336 kts 321°
2026-05-07 20:59 52.46731 20.53942 14630 ft 340 kts 321°
2026-05-07 20:59 52.48583 20.51505 15327 ft 343 kts 321°
2026-05-07 20:59 52.50453 20.49044 15998 ft 346 kts 321°
2026-05-07 21:00 52.52341 20.46555 16634 ft 350 kts 321°
2026-05-07 21:00 52.54244 20.44044 17247 ft 353 kts 321°
2026-05-07 21:00 52.56163 20.41509 17826 ft 356 kts 321°
2026-05-07 21:00 52.58101 20.38946 18382 ft 359 kts 321°
2026-05-07 21:01 52.60149 20.36580 18902 ft 362 kts 326°
2026-05-07 21:01 52.62261 20.34302 19409 ft 364 kts 326°
2026-05-07 21:01 52.64383 20.31979 19855 ft 369 kts 326°
2026-05-07 21:01 52.66555 20.29579 19947 ft 382 kts 326°
2026-05-07 21:02 52.68763 20.27126 20060 ft 393 kts 326°
2026-05-07 21:02 52.71085 20.24540 20242 ft 401 kts 325°
2026-05-07 21:02 52.73381 20.21978 20487 ft 406 kts 325°
2026-05-07 21:02 52.75727 20.19356 20814 ft 408 kts 325°
2026-05-07 21:03 52.78150 20.16911 21118 ft 410 kts 333°
2026-05-07 21:03 52.80685 20.14720 21423 ft 412 kts 332°
2026-05-07 21:03 52.83219 20.12471 21715 ft 414 kts 331°
2026-05-07 21:03 52.85749 20.10195 21994 ft 415 kts 331°
2026-05-07 21:04 52.88291 20.07892 22260 ft 417 kts 331°
2026-05-07 21:04 52.90834 20.05581 22683 ft 417 kts 331°
2026-05-07 21:04 52.93386 20.03256 23169 ft 421 kts 331°
2026-05-07 21:04 52.95964 20.00904 23689 ft 424 kts 331°
2026-05-07 21:05 52.98556 19.98535 24189 ft 427 kts 331°
2026-05-07 21:05 53.01169 19.96144 24670 ft 430 kts 331°
2026-05-07 21:05 53.03800 19.93734 25138 ft 433 kts 331°
2026-05-07 21:05 53.06448 19.91304 25591 ft 437 kts 331°
2026-05-07 21:06 53.09118 19.88850 26028 ft 440 kts 331°
2026-05-07 21:06 53.11801 19.86382 26460 ft 443 kts 330°
2026-05-07 21:06 53.14503 19.83892 26884 ft 445 kts 330°
2026-05-07 21:06 53.17224 19.81381 27291 ft 448 kts 330°
2026-05-07 21:07 53.19958 19.78854 27686 ft 451 kts 330°
2026-05-07 21:07 53.22708 19.76309 28072 ft 454 kts 330°
2026-05-07 21:07 53.25477 19.73742 28450 ft 456 kts 330°
2026-05-07 21:07 53.28257 19.71162 28816 ft 459 kts 330°
2026-05-07 21:08 53.31058 19.68557 29175 ft 461 kts 330°
2026-05-07 21:08 53.33868 19.65940 29527 ft 464 kts 330°
2026-05-07 21:08 53.36693 19.63306 29875 ft 466 kts 330°
2026-05-07 21:08 53.39535 19.60651 30208 ft 469 kts 330°
2026-05-07 21:09 53.42387 19.57984 30596 ft 469 kts 330°
2026-05-07 21:09 53.45234 19.55317 31070 ft 468 kts 330°
2026-05-07 21:09 53.48075 19.52651 31511 ft 467 kts 330°
2026-05-07 21:09 53.50910 19.49987 31955 ft 466 kts 330°
2026-05-07 21:10 53.53739 19.47324 32395 ft 465 kts 330°
2026-05-07 21:10 53.56558 19.44667 32820 ft 465 kts 330°
2026-05-07 21:10 53.59377 19.42005 33236 ft 464 kts 330°
2026-05-07 21:10 53.62149 19.39383 33638 ft 463 kts 330°
2026-05-07 21:11 53.64953 19.36728 34040 ft 462 kts 330°
2026-05-07 21:11 53.67753 19.34071 34439 ft 461 kts 330°
2026-05-07 21:11 53.73335 19.28765 35188 ft 460 kts 330°
2026-05-07 21:12 53.76119 19.26113 35549 ft 459 kts 330°
2026-05-07 21:12 53.78900 19.23458 35888 ft 458 kts 330°
2026-05-07 21:12 53.81670 19.20810 36212 ft 458 kts 330°
2026-05-07 21:12 53.84442 19.18157 36513 ft 457 kts 330°
2026-05-07 21:13 53.87212 19.15501 36796 ft 457 kts 330°
2026-05-07 21:13 53.89980 19.12844 37065 ft 457 kts 330°
2026-05-07 21:13 53.92745 19.10184 37332 ft 457 kts 330°
2026-05-07 21:13 53.95512 19.07520 37585 ft 457 kts 330°
2026-05-07 21:14 53.98278 19.04851 37832 ft 457 kts 330°
2026-05-07 21:14 54.01044 19.02179 38003 ft 458 kts 330°
2026-05-07 21:14 54.06573 18.96825 37990 ft 456 kts 330°
2026-05-07 21:15 54.12079 18.91476 38001 ft 456 kts 330°
2026-05-07 21:15 54.17584 18.86111 38000 ft 456 kts 330°
2026-05-07 21:16 54.23090 18.80730 38000 ft 456 kts 330°
2026-05-07 21:16 54.28594 18.75334 38000 ft 456 kts 330°
2026-05-07 21:17 54.34094 18.69924 38000 ft 456 kts 330°
2026-05-07 21:17 54.39590 18.64501 37984 ft 455 kts 329°
2026-05-07 21:18 54.45080 18.59068 38010 ft 457 kts 330°
2026-05-07 21:18 54.50538 18.53649 38000 ft 456 kts 329°
2026-05-07 21:19 54.56031 18.48179 38000 ft 456 kts 329°
2026-05-07 21:19 54.61523 18.42693 38004 ft 456 kts 329°
2026-05-07 21:20 54.67009 18.37195 37999 ft 456 kts 329°
2026-05-07 21:20 54.72496 18.31679 38001 ft 456 kts 329°
2026-05-07 21:21 54.77093 18.27044 38000 ft 456 kts 329°
2026-05-07 21:21 54.82533 18.21543 38017 ft 452 kts 329°
2026-05-07 21:22 54.87954 18.16045 38007 ft 452 kts 329°
2026-05-07 21:22 54.93410 18.10493 37993 ft 456 kts 329°
2026-05-07 21:23 54.98880 18.04908 38012 ft 453 kts 329°
2026-05-07 21:23 55.04334 17.99323 38006 ft 456 kts 329°
2026-05-07 21:24 55.09801 17.93707 37999 ft 456 kts 329°
2026-05-07 21:24 55.15268 17.88072 38001 ft 456 kts 329°
2026-05-07 21:25 55.20732 17.82422 38000 ft 456 kts 329°
2026-05-07 21:25 55.26189 17.76762 38000 ft 456 kts 329°
2026-05-07 21:26 55.31647 17.71082 38000 ft 456 kts 329°
2026-05-07 21:26 55.37099 17.65389 38000 ft 456 kts 329°
2026-05-07 21:27 55.42553 17.59676 38000 ft 456 kts 329°
2026-05-07 21:27 55.48000 17.53952 38000 ft 456 kts 329°
2026-05-07 21:28 55.53447 17.48209 38000 ft 456 kts 329°
2026-05-07 21:28 55.58894 17.42449 38000 ft 456 kts 329°
2026-05-07 21:29 55.64332 17.36678 38000 ft 456 kts 329°
2026-05-07 21:29 55.69771 17.30886 38000 ft 456 kts 329°
2026-05-07 21:30 55.75206 17.25081 38000 ft 456 kts 328°
2026-05-07 21:30 55.80639 17.19259 38000 ft 456 kts 328°
2026-05-07 21:31 55.86068 17.13420 38000 ft 456 kts 328°
2026-05-07 21:31 55.91461 17.07603 38000 ft 456 kts 328°
2026-05-07 21:32 55.96884 17.01733 38000 ft 456 kts 328°
2026-05-07 21:32 56.02304 16.95847 38000 ft 456 kts 328°
2026-05-07 21:33 56.07726 16.89940 38000 ft 456 kts 328°
2026-05-07 21:33 56.13140 16.84021 38000 ft 456 kts 328°
2026-05-07 21:34 56.18554 16.78083 38000 ft 456 kts 328°
2026-05-07 21:34 56.23967 16.72125 38000 ft 456 kts 328°
2026-05-07 21:35 56.29375 16.66154 38000 ft 456 kts 328°
2026-05-07 21:35 56.34782 16.60163 38000 ft 456 kts 328°
2026-05-07 21:36 56.40182 16.54159 38000 ft 456 kts 328°
2026-05-07 21:36 56.45581 16.48138 38000 ft 456 kts 328°
2026-05-07 21:37 56.50980 16.42094 38000 ft 456 kts 328°
2026-05-07 21:37 56.56377 16.36033 38000 ft 456 kts 328°
2026-05-07 21:38 56.61730 16.30001 38000 ft 456 kts 328°
2026-05-07 21:38 56.67155 16.23867 38000 ft 456 kts 328°
2026-05-07 21:39 56.72542 16.17755 38000 ft 456 kts 328°
2026-05-07 21:39 56.77925 16.11626 38000 ft 456 kts 328°
2026-05-07 21:40 56.83273 16.05517 38000 ft 457 kts 328°
2026-05-07 21:40 56.88654 15.99349 38000 ft 457 kts 327°
2026-05-07 21:41 56.94033 15.93162 38000 ft 457 kts 327°
2026-05-07 21:41 56.99414 15.86951 38000 ft 457 kts 327°
2026-05-07 21:42 57.04789 15.80725 38000 ft 457 kts 327°
2026-05-07 21:42 57.10168 15.74474 38000 ft 457 kts 327°
2026-05-07 21:43 57.15542 15.68206 38000 ft 457 kts 327°
2026-05-07 21:43 57.20913 15.61920 38000 ft 457 kts 327°
2026-05-07 21:44 57.26283 15.55612 38000 ft 457 kts 327°
2026-05-07 21:44 57.31651 15.49286 38000 ft 457 kts 327°
2026-05-07 21:45 57.37010 15.42947 38000 ft 457 kts 327°
2026-05-07 21:45 57.42369 15.36586 38000 ft 457 kts 327°
2026-05-07 21:46 57.47726 15.30205 38000 ft 458 kts 327°
2026-05-07 21:46 57.53086 15.23798 38001 ft 458 kts 327°
2026-05-07 21:47 57.58438 15.17378 38000 ft 458 kts 327°
2026-05-07 21:47 57.63787 15.10939 38000 ft 458 kts 327°
2026-05-07 21:48 57.69096 15.04525 38000 ft 458 kts 327°
2026-05-07 21:48 57.74441 14.98044 37999 ft 458 kts 327°
2026-05-07 21:49 57.79786 14.91541 38000 ft 458 kts 327°
2026-05-07 21:49 57.85128 14.85017 38001 ft 458 kts 327°
2026-05-07 21:50 57.90459 14.78483 37999 ft 457 kts 327°
2026-05-07 21:50 57.95788 14.71929 38000 ft 458 kts 326°
2026-05-07 21:51 58.01114 14.65355 38000 ft 458 kts 326°
2026-05-07 21:51 58.06437 14.58760 38000 ft 458 kts 326°
2026-05-07 21:52 58.11759 14.52142 38002 ft 458 kts 326°
2026-05-07 21:52 58.17065 14.45521 37999 ft 457 kts 326°
2026-05-07 21:53 58.22369 14.38878 38000 ft 457 kts 326°
2026-05-07 21:53 58.27667 14.32219 38000 ft 457 kts 326°
2026-05-07 21:54 58.32963 14.25537 37999 ft 457 kts 326°
2026-05-07 21:54 58.38259 14.18832 38001 ft 457 kts 326°
2026-05-07 21:55 58.43517 14.12149 38000 ft 457 kts 326°
2026-05-07 21:55 58.48803 14.05406 38000 ft 457 kts 326°
2026-05-07 21:56 58.54085 13.98645 38000 ft 457 kts 326°
2026-05-07 21:56 58.59362 13.91864 38000 ft 457 kts 326°
2026-05-07 21:57 58.64634 13.85065 38000 ft 457 kts 326°
2026-05-07 21:57 58.69903 13.78245 38000 ft 457 kts 326°
2026-05-07 21:58 58.75167 13.71404 38000 ft 456 kts 326°
2026-05-07 21:58 58.80428 13.64543 38000 ft 456 kts 326°
2026-05-07 21:59 58.85683 13.57664 38000 ft 456 kts 326°
2026-05-07 21:59 58.90901 13.50809 38000 ft 456 kts 325°
2026-05-07 22:00 58.96150 13.43886 38000 ft 456 kts 325°
2026-05-07 22:00 59.01395 13.36945 38000 ft 456 kts 325°
2026-05-07 22:01 59.06636 13.29980 38000 ft 456 kts 325°
2026-05-07 22:01 59.11871 13.22997 37100 ft 459 kts 325°
2026-05-07 22:02 59.14516 13.19460 36434 ft 458 kts 325°
2026-05-07 22:02 59.17131 13.15956 35741 ft 457 kts 325°
2026-05-07 22:02 59.19770 13.12413 34682 ft 464 kts 325°
2026-05-07 22:02 59.22418 13.08850 34076 ft 460 kts 325°
2026-05-07 22:03 59.25055 13.05297 33186 ft 463 kts 325°
2026-05-07 22:03 59.27721 13.01696 32143 ft 468 kts 325°
2026-05-07 22:03 59.30409 12.98060 31250 ft 469 kts 325°
2026-05-07 22:03 59.33084 12.94434 30480 ft 467 kts 325°
2026-05-07 22:04 59.35761 12.90797 29485 ft 470 kts 325°
2026-05-07 22:04 59.38452 12.87135 28550 ft 470 kts 325°
2026-05-07 22:04 59.41140 12.83469 27485 ft 472 kts 325°
2026-05-07 22:04 59.43837 12.79783 26540 ft 472 kts 325°
2026-05-07 22:05 59.46513 12.76120 25829 ft 466 kts 325°
2026-05-07 22:05 59.49156 12.72495 25046 ft 461 kts 325°
2026-05-07 22:05 59.51778 12.68891 24282 ft 457 kts 324°
2026-05-07 22:05 59.54376 12.65314 23515 ft 453 kts 324°
2026-05-07 22:06 59.56949 12.61764 22778 ft 450 kts 324°
2026-05-07 22:06 59.59498 12.58241 22033 ft 446 kts 324°
2026-05-07 22:06 59.62026 12.54740 21296 ft 442 kts 324°
2026-05-07 22:06 59.64532 12.51262 20567 ft 438 kts 324°
2026-05-07 22:07 59.67016 12.47810 19843 ft 435 kts 324°
2026-05-07 22:07 59.69477 12.44382 19130 ft 431 kts 324°
2026-05-07 22:07 59.71885 12.41023 18431 ft 427 kts 324°
2026-05-07 22:07 59.74302 12.37644 17768 ft 423 kts 324°
2026-05-07 22:08 59.76694 12.34295 17032 ft 420 kts 324°
2026-05-07 22:08 59.79065 12.30970 16427 ft 415 kts 324°
2026-05-07 22:08 59.81413 12.27671 15729 ft 412 kts 324°
2026-05-07 22:08 59.83737 12.24399 15137 ft 406 kts 324°
2026-05-07 22:09 59.86044 12.21146 14403 ft 406 kts 324°
2026-05-07 22:09 59.88328 12.17921 13875 ft 399 kts 324°
2026-05-07 22:09 59.90582 12.14730 13194 ft 397 kts 324°
2026-05-07 22:09 59.92823 12.11555 12636 ft 393 kts 324°
2026-05-07 22:10 59.95037 12.08411 12118 ft 387 kts 324°
2026-05-07 22:10 59.97186 12.05356 11854 ft 369 kts 324°
2026-05-07 22:10 59.99219 12.02460 11681 ft 349 kts 324°
2026-05-07 22:10 60.01147 11.99710 11492 ft 332 kts 324°
2026-05-07 22:11 60.02980 11.97092 11313 ft 316 kts 324°
2026-05-07 22:11 60.04727 11.94593 11150 ft 301 kts 324°
2026-05-07 22:11 60.06393 11.92206 10993 ft 288 kts 324°
2026-05-07 22:11 60.07983 11.89927 10852 ft 275 kts 324°
2026-05-07 22:12 60.09498 11.87750 10713 ft 262 kts 324°
2026-05-07 22:12 60.10467 11.86359 10627 ft 256 kts 324°
2026-05-07 22:12 60.11908 11.84285 10516 ft 255 kts 324°
2026-05-07 22:12 60.13346 11.82215 10394 ft 254 kts 324°
2026-05-07 22:13 60.14779 11.80149 10272 ft 254 kts 324°
2026-05-07 22:13 60.16211 11.78082 10104 ft 254 kts 324°
2026-05-07 22:13 60.17648 11.76007 9833 ft 255 kts 324°
2026-05-07 22:13 60.19087 11.73926 9541 ft 255 kts 324°
2026-05-07 22:14 60.20525 11.71844 9247 ft 254 kts 324°
2026-05-07 22:14 60.21955 11.69771 8974 ft 253 kts 324°
2026-05-07 22:14 60.23379 11.67704 8699 ft 252 kts 323°
2026-05-07 22:14 60.24792 11.65651 8426 ft 250 kts 323°
2026-05-07 22:15 60.26199 11.63605 8150 ft 249 kts 323°
2026-05-07 22:15 60.27595 11.61573 7882 ft 247 kts 323°
2026-05-07 22:15 60.28985 11.59547 7612 ft 246 kts 323°
2026-05-07 22:15 60.30371 11.57525 7306 ft 246 kts 323°
2026-05-07 22:16 60.31741 11.55523 7003 ft 246 kts 323°
2026-05-07 22:16 60.33146 11.53470 6715 ft 246 kts 323°
2026-05-07 22:16 60.34509 11.51475 6439 ft 245 kts 323°
2026-05-07 22:16 60.35882 11.49463 6173 ft 243 kts 323°
2026-05-07 22:17 60.37237 11.47475 5997 ft 237 kts 323°
2026-05-07 22:17 60.38553 11.45544 5881 ft 230 kts 323°
2026-05-07 22:17 60.39837 11.43656 5769 ft 227 kts 323°
2026-05-07 22:17 60.41033 11.41597 5600 ft 226 kts 304°
2026-05-07 22:18 60.41519 11.38650 5385 ft 223 kts 271°
2026-05-07 22:18 60.41039 11.32462 5185 ft 213 kts 258°
2026-05-07 22:18 60.40737 11.29652 5060 ft 204 kts 257°
2026-05-07 22:19 60.40410 11.26846 4873 ft 201 kts 253°
2026-05-07 22:19 60.39688 11.24519 4627 ft 200 kts 221°
2026-05-07 22:19 60.38503 11.23063 4417 ft 200 kts 204°
2026-05-07 22:19 60.37200 11.22138 4151 ft 197 kts 197°
2026-05-07 22:20 60.35901 11.21399 3902 ft 188 kts 196°
2026-05-07 22:20 60.34642 11.20677 3641 ft 188 kts 197°
2026-05-07 22:20 60.33392 11.19953 3390 ft 184 kts 197°
2026-05-07 22:20 60.32224 11.19274 3171 ft 168 kts 197°
2026-05-07 22:21 60.31108 11.18624 2937 ft 166 kts 197°
2026-05-07 22:21 60.30005 11.17983 2728 ft 165 kts 197°
2026-05-07 22:21 60.28910 11.17346 2489 ft 161 kts 197°
2026-05-07 22:21 60.27856 11.16733 2273 ft 155 kts 197°
2026-05-07 22:22 60.26829 11.16136 2071 ft 153 kts 197°
2026-05-07 22:22 60.25818 11.15547 1826 ft 150 kts 196°
2026-05-07 22:22 60.24833 11.15004 1673 ft 143 kts 195°
2026-05-07 22:22 60.23862 11.14451 1466 ft 148 kts 198°
2026-05-07 22:23 60.22889 11.13852 1295 ft 145 kts 197°
2026-05-07 22:23 60.21931 11.13296 1093 ft 142 kts 198°
2026-05-07 22:23 60.20983 11.12746 908 ft 142 kts 195°
2026-05-07 22:23 60.20040 11.12213 734 ft 139 kts 197°
2026-05-07 22:24 60.19195 11.11713 686 ft 106 kts 197°
2026-05-07 22:24 60.18666 11.11408 686 ft 56 kts 196°
2026-05-07 22:24 60.18350 11.11224 683 ft 46 kts 196°
2026-05-07 22:24 60.18107 11.11040 679 ft 31 kts 213°
2026-05-07 22:25 60.18036 11.10839 678 ft 14 kts 268°
2026-05-07 22:25 60.18063 11.10698 677 ft 8 kts 318°
2026-05-07 22:25 60.18104 11.10690 679 ft 6 kts 12°
2026-05-07 22:25 60.18153 11.10717 678 ft 8 kts 16°
2026-05-07 22:26 60.18217 11.10755 680 ft 11 kts 16°
2026-05-07 22:26 60.18294 11.10800 681 ft 12 kts 16°
2026-05-07 22:26 60.18382 11.10850 677 ft 14 kts 15°
2026-05-07 22:26 60.18482 11.10908 681 ft 16 kts 16°
2026-05-07 22:27 60.18594 11.10973 682 ft 18 kts 16°
2026-05-07 22:27 60.18722 11.11047 683 ft 20 kts 16°
2026-05-07 22:27 60.18865 11.11130 682 ft 23 kts 16°
2026-05-07 22:27 60.19022 11.11220 685 ft 25 kts 16°
2026-05-07 22:28 60.19199 11.11321 685 ft 27 kts 15°
2026-05-07 22:28 60.19331 11.11399 685 ft 14 kts 16°
2026-05-07 22:28 60.19408 11.11320 681 ft 15 kts 286°
2026-05-07 22:28 60.19437 11.11113 682 ft 17 kts 285°
2026-05-07 22:29 60.19470 11.10875 684 ft 19 kts 286°
2026-05-07 22:29 60.19506 11.10629 686 ft 18 kts 286°
2026-05-07 22:29 60.19544 11.10417 684 ft 12 kts 317°
2026-05-07 22:29 60.19607 11.10381 685 ft 6 kts 334°
2026-05-07 22:30 60.19616 11.10364 683 ft 2 kts 307°
2026-05-07 22:30 60.19625 11.10313 682 ft 7 kts 285°
2026-05-07 22:30 60.19638 11.10220 680 ft 5 kts 286°
2026-05-07 22:30 60.19640 11.10205 682 ft 0 kts 286°